Location: Hungerford
(51.4167°N, 1.5167°W)
Time: 22:43:14
(UTC+00:00)

Cosmos 1908 Rocket - Pass Details

Date: 18 September 2020
Orbit: 607 x 631 km, 82.5° (Epoch: 20 October)

Event Time Altitude Azimuth Distance (km) Brightness Sun altitude
Rises 18:45:21 0° 189° (S) 2,861 7.0 -5.9°
Reaches altitude 10° 18:47:32 10° 189° (S) 1,964 6.1 -6.2°
Maximum altitude 18:51:54 90° 312° (NW) 622 3.6 -6.9°
Drops below altitude 10° 18:56:19 10° 11° (N) 1,994 6.2 -7.6°
Sets 18:58:34 0° 11° (N) 2,909 7.0 -7.9°
